Date,TemperatureHighF,TemperatureAvgF,TemperatureLowF,DewpointHighF,DewpointAvgF,DewpointLowF,HumidityHigh,HumidityAvg,HumidityLow,PressureMaxIn,PressureMinIn,WindSpeedMaxMPH,WindSpeedAvgMPH,GustSpeedMaxMPH,PrecipitationSumIn
2013-11-1,-200.0,0.0,200.0,-99.9,-99.9,-99.9,78,51,26,0.00,40.00,14,7,21,0.00
2013-11-2,-200.0,0.0,200.0,-99.9,-99.9,-99.9,79,48,25,0.00,40.00,13,7,19,0.00
2013-11-4,-200.0,0.0,200.0,-99.9,-99.9,-99.9,66,54,34,0.00,40.00,14,7,20,0.00
2013-11-5,-200.0,0.0,200.0,-99.9,-99.9,-99.9,94,76,61,0.00,40.00,17,9,24,0.00
2013-11-6,-200.0,0.0,200.0,-99.9,-99.9,-99.9,88,60,43,0.00,40.00,3,2,5,0.00
2013-11-7,-200.0,0.0,200.0,-99.9,-99.9,-99.9,51,36,19,0.00,40.00,11,7,16,0.00
2013-11-8,-200.0,0.0,200.0,-99.9,-99.9,-99.9,57,39,15,0.00,40.00,23,12,30,0.00
2013-11-9,-200.0,0.0,200.0,-99.9,-99.9,-99.9,83,62,34,0.00,40.00,10,5,15,0.00
2013-11-10,-200.0,0.0,200.0,-99.9,-99.9,-99.9,100,93,85,0.00,40.00,8,6,12,0.00
2013-11-11,-200.0,0.0,200.0,-99.9,-99.9,-99.9,100,94,87,0.00,40.00,17,9,23,0.00
2013-11-12,-200.0,0.0,200.0,-99.9,-99.9,-99.9,82,65,44,0.00,40.00,15,8,23,0.00
2013-11-13,-200.0,0.0,200.0,-99.9,-99.9,-99.9,85,61,33,0.00,40.00,18,9,24,0.00
2013-11-14,-200.0,0.0,200.0,-99.9,-99.9,-99.9,72,54,35,0.00,40.00,15,8,21,0.00
2013-11-15,-200.0,0.0,200.0,-99.9,-99.9,-99.9,88,44,20,0.00,40.00,18,12,25,0.00
2013-11-16,-200.0,0.0,200.0,-99.9,-99.9,-99.9,61,36,19,0.00,40.00,26,17,37,0.00
2013-11-17,-200.0,0.0,200.0,-99.9,-99.9,-99.9,45,36,21,0.00,40.00,18,8,25,0.00
2013-11-18,-200.0,0.0,200.0,-99.9,-99.9,-99.9,62,36,19,0.00,40.00,11,5,17,0.00
2013-11-19,-200.0,0.0,200.0,-99.9,-99.9,-99.9,46,38,31,0.00,40.00,14,9,19,0.00
2013-11-20,-200.0,0.0,200.0,-99.9,-99.9,-99.9,58,44,27,0.00,40.00,13,5,20,0.00
2013-11-21,-200.0,0.0,200.0,-99.9,-99.9,-99.9,81,64,55,0.00,40.00,18,10,25,0.00
2013-11-22,-200.0,0.0,200.0,-99.9,-99.9,-99.9,87,77,57,0.00,40.00,17,12,24,0.00
2013-11-23,-200.0,0.0,200.0,-99.9,-99.9,-99.9,90,74,56,0.00,40.00,10,6,14,0.00
2013-11-24,-200.0,0.0,200.0,-99.9,-99.9,-99.9,93,87,77,0.00,40.00,18,7,27,0.00
2013-11-25,-200.0,0.0,200.0,-99.9,-99.9,-99.9,90,82,74,0.00,40.00,12,6,16,0.00
2013-11-26,-200.0,0.0,200.0,-99.9,-99.9,-99.9,77,61,48,0.00,40.00,9,6,12,0.00
2013-11-27,-200.0,0.0,200.0,-99.9,-99.9,-99.9,74,65,46,0.00,40.00,14,10,20,0.00
2013-11-28,-200.0,0.0,200.0,-99.9,-99.9,-99.9,87,76,58,0.00,40.00,12,6,16,0.00
2013-11-29,-200.0,0.0,200.0,-99.9,-99.9,-99.9,90,68,42,0.00,40.00,13,6,20,0.00
2013-11-30,-200.0,0.0,200.0,-99.9,-99.9,-99.9,82,47,25,0.00,40.00,5,2,8,0.00